Theta_e
306 306 306 306 307 308 309 309 309 310 310 310 310 310 310 310 308 301 293 292 288 282 283 281 282 277 277 277 273 275 274 270 267 263 257 258 258 261 257 260 258 256 252 253 254 252 254 267 271 267 267 267 264 260
304 304 304 304 305 305 307 307 308 308 309 309 309 309 309 309 309 305 287 291 293 284 283 283 284 285 284 283 279 277 275 271 272 266 264 261 261 257 257 257 265 257 262 259 262 261 265 267 269 268 265 269 267 267
299 300 300 301 301 302 303 304 306 307 308 308 308 309 309 309 309 306 295 289 285 284 281 281 279 283 286 285 285 276 277 278 274 274 269 266 262 264 258 258 264 266 267 265 264 268 268 268 269 270 269 273 274 272
297 298 298 299 299 300 300 302 304 305 306 307 307 308 308 308 308 307 289 288 287 282 278 275 280 279 284 286 285 285 279 278 277 274 270 264 264 269 265 267 266 268 269 267 267 271 270 271 273 274 273 271 272 270
296 297 297 298 299 299 300 300 301 302 304 305 306 307 307 307 307 300 287 288 290 285 276 271 275 277 279 282 282 282 278 276 274 271 266 265 270 269 269 267 267 271 269 265 265 271 271 272 274 273 271 271 270 269
296 296 297 297 298 299 300 300 301 301 302 304 305 306 306 306 295 287 282 285 286 285 277 272 273 267 270 277 277 277 280 277 274 271 269 271 274 269 264 261 270 272 273 273 271 273 273 273 273 270 269 269 268 267
295 295 296 297 297 298 299 300 300 301 301 303 304 305 305 302 295 286 283 284 289 286 276 271 268 269 269 272 272 272 273 274 271 271 269 270 270 273 268 264 271 272 272 272 272 271 270 271 268 268 267 265 264 262
295 295 296 296 297 298 299 300 300 301 301 302 303 304 305 298 289 282 286 291 287 279 276 270 264 265 271 269 268 271 270 272 269 267 268 265 268 267 265 270 272 271 270 267 269 269 268 267 267 265 264 263 261 262
294 294 295 296 297 298 298 300 301 301 301 302 299 293 287 282 278 281 290 287 284 279 271 266 263 263 272 271 270 269 265 262 261 265 263 267 264 265 266 269 270 269 266 266 265 264 264 264 263 261 260 258 257 259
293 294 294 295 297 298 299 300 301 301 301 295 284 279 275 279 290 287 280 276 276 275 273 264 265 266 272 271 267 267 263 261 259 262 264 264 264 264 266 262 264 264 263 262 264 264 261 261 260 258 256 257 258 257
293 293 294 295 297 300 300 300 301 298 291 281 274 273 281 285 278 275 271 271 270 265 264 263 266 267 274 268 268 268 263 260 257 259 262 257 257 263 258 255 254 258 258 258 259 260 259 260 258 254 253 253 253 254
293 293 293 294 297 300 301 300 298 289 281 279 279 281 278 274 271 269 267 267 265 261 258 265 267 271 271 272 268 265 263 260 257 259 258 254 262 258 257 256 255 254 256 258 259 260 259 259 257 255 254 252 251 250
294 294 294 294 297 301 300 299 294 289 286 279 275 272 271 269 265 264 259 260 255 259 264 269 268 269 270 270 265 264 260 259 259 257 256 259 260 257 254 252 253 254 256 257 259 256 253 254 252 252 254 252 249 248
293 294 294 294 300 301 301 297 290 287 281 273 270 265 267 263 265 264 258 260 266 269 270 270 267 268 267 266 264 261 260 260 254 252 255 258 256 254 252 253 256 258 257 259 258 254 253 249 248 247 249 247 245 248
292 291 290 294 300 301 298 292 290 280 276 271 271 266 265 266 266 265 268 269 271 273 270 268 267 268 265 263 263 260 256 254 256 256 258 259 254 252 255 255 256 256 258 258 256 253 249 247 246 250 248 245 243 244
290 287 286 290 297 298 292 286 279 277 272 269 267 264 264 265 265 268 269 268 272 271 269 267 264 262 260 261 258 257 257 255 258 256 259 256 254 253 254 254 255 255 256 257 254 249 247 247 248 249 248 245 245 245
287 281 289 288 287 287 286 277 275 271 268 266 265 268 268 268 267 268 270 268 272 269 264 264 261 260 260 255 253 257 256 259 261 259 257 256 254 253 251 251 253 256 256 255 253 247 247 246 244 246 249 249 246 247
280 286 289 288 284 280 275 275 272 268 264 265 265 265 266 268 267 266 267 269 268 265 263 261 262 257 257 254 253 257 257 255 255 255 255 252 249 249 251 251 255 256 255 254 252 249 245 246 247 249 246 246 248 247
284 283 287 286 281 275 271 270 270 263 264 265 266 266 264 263 263 264 265 264 263 262 263 258 256 254 256 255 256 254 252 254 257 257 255 250 251 252 253 255 256 257 256 254 251 250 248 246 249 249 249 249 249 250
286 285 284 282 281 273 268 267 272 267 264 264 266 262 261 260 260 260 260 261 260 259 259 256 256 256 258 258 256 257 256 255 253 251 252 252 250 250 253 255 258 257 255 252 252 251 248 250 250 250 250 250 248 252
281 281 281 275 270 267 263 263 263 264 265 262 263 263 260 260 259 259 259 256 259 255 256 255 254 252 246 246 246 247 249 253 253 254 253 251 251 251 252 254 255 252 252 254 253 254 250 249 250 250 249 251 251 251
278 281 275 275 268 265 263 263 264 263 262 261 262 261 259 258 256 253 253 255 254 254 250 249 248 245 247 249 247 244 245 245 244 248 250 251 251 251 252 253 254 254 253 251 253 254 252 250 249 249 249 251 251 250
280 277 271 269 264 263 261 263 262 260 262 260 259 257 253 251 250 252 251 249 249 246 243 243 243 240 243 242 242 243 242 246 246 246 246 246 245 249 253 254 253 252 252 255 251 252 251 250 250 251 251 249 248 248
275 267 264 261 262 257 258 258 259 259 259 257 256 253 251 249 250 250 251 246 248 243 243 243 241 245 245 245 245 244 244 243 245 246 244 247 250 251 251 253 251 250 253 253 252 249 246 247 251 248 247 246 245 246
268 261 262 257 253 255 257 257 257 258 256 251 251 251 251 247 248 247 249 249 244 243 242 239 241 242 245 242 242 243 244 245 247 248 248 248 250 251 251 252 252 254 250 249 246 245 246 246 245 245 246 246 248 250
259 256 258 251 252 256 254 254 253 253 249 249 248 247 246 247 249 251 249 248 245 243 243 243 244 244 244 244 245 245 247 243 246 248 247 246 249 250 251 252 250 252 244 245 246 246 247 247 245 248 249 250 251 250
258 256 249 247 253 254 253 253 253 255 252 252 250 248 248 250 249 252 247 244 245 244 243 242 243 244 245 244 244 244 243 243 247 248 247 246 248 249 250 249 248 249 244 245 246 246 247 248 248 249 250 252 252 254
256 248 253 250 251 250 252 251 253 254 253 249 252 252 253 253 254 249 248 247 244 243 242 240 240 242 243 243 243 243 245 242 243 243 244 245 243 244 243 243 243 255 247 244 247 248 247 248 249 251 253 254 256 257
251 246 253 251 250 251 249 252 252 249 249 250 251 247 247 245 244 244 246 244 240 243 243 243 244 241 242 242 241 241 242 244 247 247 246 246 247 249 242 242 243 243 243 243 251 257 254 253 254 255 257 257 259 259
251 245 251 249 251 249 247 246 247 245 243 244 244 246 246 245 243 239 241 242 244 244 242 242 241 243 244 244 244 245 242 242 244 247 247 246 248 246 243 243 244 244 245 245 250 251 255 254 255 255 257 258 260 261
244 248 249 248 244 245 245 245 244 243 242 242 241 245 245 243 245 240 242 240 240 240 243 244 243 240 243 242 243 244 247 244 241 244 242 242 242 242 244 245 245 245 245 246 249 248 250 252 254 256 258 260 261 262
248 246 249 246 245 247 244 242 241 241 241 244 243 240 244 245 246 244 242 243 243 244 244 242 243 246 244 243 241 241 247 243 243 244 245 244 245 246 246 246 245 245 247 250 250 249 251 253 255 258 259 260 261 262
241 240 239 242 242 243 243 243 243 243 242 241 242 239 240 244 248 247 245 244 246 245 244 244 244 242 242 242 243 243 245 242 244 252 255 255 252 251 247 245 247 249 249 250 252 253 255 257 258 260 261 261 262 262
Wind_Speed
27 28 29 29 28 27 27 27 26 26 25 23 22 21 21 21 28 20 8 16 12 6 4 7 9 8 5 5 6 5 3 0 2 4 4 5 4 6 2 4 6 7 4 5 1 0 9 6 4 4 8 5 4 4
28 29 31 30 31 30 29 28 27 27 25 24 23 22 22 20 22 30 4 11 10 3 2 3 6 10 10 10 6 7 3 5 6 3 2 1 3 1 4 4 2 3 9 6 9 9 7 6 9 7 5 6 4 4
28 29 30 30 32 33 33 32 29 28 26 24 24 23 24 21 20 26 9 9 4 5 2 3 6 6 4 9 9 6 4 7 5 4 4 4 4 4 4 7 4 5 6 6 4 8 13 9 5 6 6 4 4 3
29 30 31 30 31 31 31 31 30 28 28 27 25 24 24 22 21 24 9 9 7 4 4 3 0 3 1 9 9 8 6 3 4 3 3 4 3 5 4 6 7 6 5 5 9 15 10 7 4 3 1 3 4 4
29 30 31 31 31 31 29 29 29 29 28 27 26 25 23 22 21 3 5 8 8 7 5 1 1 3 5 5 9 7 7 5 2 3 2 4 3 1 3 1 14 8 12 6 9 12 9 9 4 1 2 3 4 7
31 32 33 32 30 30 29 28 28 28 27 27 28 25 23 23 29 6 2 2 3 4 5 3 1 3 4 5 6 4 7 4 3 3 3 4 4 4 4 5 8 9 11 15 15 9 7 3 2 3 3 4 5 8
32 32 34 33 33 32 29 28 27 26 26 26 26 24 23 22 11 4 7 5 19 6 4 2 1 2 2 3 3 2 2 2 3 2 4 3 3 6 4 11 20 6 8 9 7 5 4 4 3 1 2 2 3 5
32 32 33 34 33 31 29 27 26 24 24 24 22 22 23 23 12 4 2 25 12 7 3 4 2 1 4 3 3 1 2 2 1 4 1 2 0 2 9 14 10 3 3 2 5 2 2 1 1 3 3 4 5 6
32 34 34 34 34 32 28 26 24 22 21 20 21 29 8 6 2 3 20 14 5 3 7 4 8 5 3 3 3 2 2 1 1 3 3 4 4 10 8 6 6 6 5 4 2 2 3 1 1 2 3 4 3 6
34 35 35 36 33 30 26 23 22 20 20 33 8 4 3 2 26 12 5 3 3 2 1 3 2 4 5 3 3 4 1 3 2 5 2 4 7 5 4 2 4 4 4 3 2 2 0 2 2 2 2 3 4 5
35 35 36 37 34 26 21 19 19 24 21 3 4 3 4 8 4 3 3 4 3 1 2 4 4 7 2 4 4 2 3 2 1 5 3 3 5 4 3 3 3 4 3 2 2 0 1 3 3 3 4 4 4 5
34 36 38 38 36 22 16 17 28 13 3 8 11 8 4 2 3 4 4 2 4 8 2 5 3 4 3 3 3 2 4 2 5 1 2 5 5 1 0 1 1 1 2 1 1 2 1 3 3 4 4 4 3 4
35 35 36 38 34 18 17 24 28 37 25 5 5 5 4 2 4 8 9 5 2 4 5 5 7 4 3 2 3 3 4 5 2 1 6 6 2 1 3 1 2 2 2 1 1 1 1 3 2 3 4 4 4 5
35 36 35 37 26 18 19 33 42 21 7 4 6 8 8 6 6 5 5 6 4 6 12 8 4 4 3 3 3 4 3 3 0 3 7 4 5 4 3 3 2 2 2 2 2 1 3 3 4 4 5 3 3 4
34 33 29 24 20 19 31 44 26 4 4 4 4 6 5 3 2 3 3 4 5 11 8 6 4 3 2 4 2 4 2 5 6 6 4 3 3 4 3 2 3 3 2 2 1 1 3 3 3 5 4 4 4 4
25 15 13 44 22 26 38 22 7 4 4 4 3 4 2 4 2 3 7 8 4 8 4 4 4 4 3 4 4 8 6 8 4 4 3 3 3 3 3 3 4 2 2 1 2 2 2 3 3 4 6 3 3 3
12 4 17 23 24 22 18 7 4 6 5 4 2 2 2 5 3 2 5 4 4 4 3 4 6 5 4 3 2 5 6 4 3 2 2 4 5 5 4 3 3 3 2 2 1 2 3 3 2 2 3 4 4 4
3 4 14 13 9 8 4 6 5 5 6 3 3 2 2 3 5 4 3 4 3 2 2 3 5 3 5 7 4 4 3 1 1 2 3 3 3 3 3 3 2 2 2 2 3 2 2 2 2 3 3 4 5 4
5 2 10 12 8 4 4 5 4 5 3 1 2 2 3 3 4 3 4 3 3 1 5 3 5 3 4 4 4 3 2 3 3 3 2 2 4 5 3 3 2 2 2 2 1 3 3 4 4 3 3 1 3 3
10 9 13 18 7 4 5 4 3 4 3 2 3 4 3 3 2 3 3 3 3 3 3 1 5 5 5 4 4 4 4 4 4 2 3 2 2 3 3 3 2 1 1 1 2 2 2 2 1 1 2 3 2 4
5 2 9 6 5 7 5 3 4 3 3 4 2 3 3 2 3 3 2 3 4 2 2 4 4 2 2 2 1 2 3 4 4 4 4 1 2 3 2 2 2 1 1 1 1 2 1 3 3 2 2 4 4 4
2 7 3 4 5 4 5 4 3 2 4 2 3 2 3 2 1 2 2 3 2 3 1 1 2 1 2 1 2 2 1 4 3 3 4 4 2 0 1 2 2 2 2 2 2 2 3 3 2 3 3 5 4 4
8 3 4 3 6 5 2 2 4 4 4 2 2 3 2 2 2 2 0 2 3 2 2 2 2 1 1 3 1 2 3 4 2 1 1 2 1 1 1 2 2 2 2 1 1 2 3 3 4 4 3 3 2 3
7 5 4 4 5 4 2 4 2 3 3 3 3 2 1 1 2 4 2 3 3 2 1 2 1 2 3 4 2 2 2 2 2 1 1 3 1 2 2 2 2 2 2 1 2 2 2 3 4 3 2 2 3 3
3 4 4 6 3 6 4 3 2 3 3 1 3 1 1 2 3 1 3 4 2 2 2 1 1 2 2 2 3 3 3 3 3 3 3 2 2 1 2 1 2 3 2 1 2 2 3 3 2 3 3 3 5 6
5 3 3 5 1 5 5 5 4 5 4 2 1 1 2 3 3 4 4 4 3 3 3 4 4 1 2 3 2 1 3 2 4 2 3 3 3 3 1 0 2 3 2 3 2 2 4 3 3 6 6 6 6 6
5 2 2 1 3 5 5 3 3 3 4 5 4 3 3 2 4 5 2 2 2 3 3 3 4 3 3 2 3 3 2 2 3 3 2 3 3 3 3 3 3 4 3 3 3 3 4 5 5 5 7 7 6 6
3 3 7 3 4 2 7 3 4 5 4 2 4 4 8 9 6 4 4 2 3 3 3 1 2 2 3 3 2 1 1 1 2 2 2 2 2 2 3 3 2 5 3 3 4 4 4 5 6 7 8 9 10 7
3 3 3 5 3 5 3 3 3 1 1 3 5 4 5 4 3 2 1 1 2 4 3 1 2 2 2 2 1 0 1 2 3 4 3 3 4 4 2 2 3 3 2 3 7 8 8 8 8 9 10 9 10 10
1 1 5 3 5 2 2 0 1 2 1 2 2 2 3 3 3 1 3 2 2 2 3 3 2 3 1 2 2 4 2 3 4 4 3 3 4 3 3 3 3 3 2 2 4 6 7 3 5 4 6 7 6 7
1 2 5 5 3 2 2 2 1 1 3 3 2 4 3 3 4 1 2 3 3 3 3 1 1 1 3 2 2 1 3 2 4 5 4 3 3 3 4 4 3 2 2 3 4 4 4 3 4 7 8 10 11 10
4 5 4 5 1 3 3 3 1 3 4 4 4 3 4 4 2 4 2 3 3 1 3 3 2 3 4 3 1 2 3 2 2 4 6 3 4 4 4 3 2 2 3 5 4 4 4 6 6 8 9 11 12 12
4 3 4 5 4 4 3 4 5 3 4 3 3 0 2 3 3 4 2 1 3 3 3 4 4 3 3 4 4 3 3 3 4 5 6 7 7 6 3 2 2 3 4 5 5 5 7 8 8 9 10 11 12 11
Wind_Direction
286 285 284 284 281 279 276 273 268 266 264 259 256 253 247 236 210 190 200 186 182 203 215 192 164 143 140 171 161 151 137 203 90 162 148 226 193 216 134 214 195 176 158 218 106 89 277 200 132 176 222 284 233 250
293 290 289 287 285 282 279 275 272 267 260 255 252 251 247 240 226 198 180 186 192 199 249 213 227 193 180 161 162 179 189 161 166 135 215 90 240 132 166 247 126 292 191 196 184 217 226 215 231 243 190 221 252 239
297 296 293 290 288 286 284 279 274 269 264 255 251 245 247 242 238 208 187 149 154 216 256 192 197 223 154 175 162 158 190 171 185 187 163 203 219 130 191 234 215 252 176 223 46 250 253 265 249 231 187 232 283 288
299 298 296 293 289 286 284 282 279 273 266 260 253 248 244 244 241 220 170 169 163 122 220 259 308 160 171 183 183 206 125 59 115 138 169 176 182 185 214 240 219 199 172 208 253 276 278 279 269 143 317 245 292 291
302 299 297 293 289 287 281 280 278 276 268 261 255 249 246 245 246 224 78 187 181 171 162 239 12 7 39 134 176 175 148 146 142 170 175 202 209 201 231 306 253 211 235 204 241 255 237 264 161 137 291 317 322 317
305 303 298 294 291 288 283 279 273 272 271 264 255 249 248 246 135 107 101 248 163 134 111 157 3 8 14 81 119 138 183 167 158 171 195 230 204 151 241 238 241 208 223 229 243 252 219 254 112 77 322 332 323 313
307 305 301 296 294 290 284 277 270 267 269 266 259 252 244 185 176 165 184 154 151 110 108 135 285 310 102 101 70 104 130 189 144 206 209 197 200 207 225 250 260 230 233 238 227 150 255 188 185 34 1 323 326 293
310 308 304 300 294 288 283 276 266 261 262 264 264 259 262 154 70 26 42 140 108 87 101 139 226 66 202 122 114 153 121 105 239 202 294 179 89 166 252 248 262 243 183 88 125 43 62 54 90 51 6 351 331 322
314 314 312 307 298 289 282 272 260 253 255 264 114 102 68 47 108 96 97 77 57 110 157 132 154 194 169 120 111 100 108 130 287 217 226 147 182 223 231 240 240 200 182 166 107 103 95 125 314 19 354 342 307 311
315 314 314 309 299 288 276 263 251 245 243 125 75 69 89 237 117 95 22 50 37 1 76 160 128 149 169 137 126 115 157 211 206 238 107 223 246 277 253 176 116 111 117 124 112 267 199 268 223 299 271 278 283 294
315 314 314 313 302 285 261 244 236 143 115 75 102 91 109 66 71 57 129 174 152 213 194 206 164 134 192 131 129 193 173 178 180 259 165 267 273 246 30 70 23 72 101 88 68 78 250 257 276 278 293 268 284 292
315 313 312 313 309 277 236 228 159 133 97 133 108 89 81 61 64 129 184 157 181 210 259 142 153 98 117 118 115 193 161 79 241 165 86 269 251 272 196 208 280 102 98 109 216 267 278 262 266 268 282 286 272 279
317 315 312 312 302 251 214 163 145 125 119 77 71 97 136 133 176 191 185 237 183 169 177 159 130 116 111 84 81 124 132 214 75 117 230 231 248 236 232 241 279 226 199 217 260 288 310 291 312 223 264 257 287 303
319 315 316 313 286 220 208 152 145 143 86 95 134 135 198 175 228 187 175 175 201 136 139 128 96 113 123 113 136 138 211 103 169 233 235 248 224 214 220 231 157 234 234 270 268 253 290 289 285 277 249 251 262 295
319 317 329 313 279 222 158 148 139 86 91 105 148 170 180 121 93 151 171 112 106 128 121 113 77 90 114 126 172 110 76 239 212 225 225 237 214 179 214 223 224 236 241 265 205 238 261 272 274 296 276 262 244 271
330 328 345 343 242 158 136 125 73 71 61 86 86 110 124 98 125 120 124 120 119 129 97 67 109 108 176 138 124 204 167 219 237 210 213 155 187 206 204 213 220 207 216 252 242 223 256 272 263 274 302 286 263 252
331 326 359 9 37 65 73 67 69 59 67 63 44 38 56 83 91 87 118 108 131 107 122 122 126 175 100 87 239 190 206 209 185 222 206 194 186 205 197 206 209 202 207 218 242 241 249 268 274 359 337 288 303 286
298 334 30 16 14 17 30 30 73 72 69 29 70 23 26 26 93 57 76 97 88 91 127 166 126 125 175 171 240 227 216 235 202 191 203 199 205 205 175 192 204 204 233 233 241 271 260 358 334 264 260 279 309 309
229 296 36 51 60 71 39 36 47 82 61 53 89 53 64 69 48 29 54 43 48 79 105 44 87 174 217 212 184 203 217 183 186 212 227 229 186 174 179 202 196 184 222 240 211 253 239 220 234 245 257 298 268 280
96 71 63 51 61 64 61 28 12 69 73 50 35 44 54 47 25 32 43 20 41 58 53 120 200 208 183 209 191 171 176 156 127 62 288 266 210 150 187 176 206 178 255 275 250 250 314 319 277 234 250 240 249 278
339 56 43 57 47 56 72 4 58 57 91 67 43 41 57 30 39 30 11 349 51 174 239 217 223 261 319 303 340 107 118 140 180 165 197 195 243 157 174 189 153 132 175 237 264 290 290 239 251 273 261 274 256 252
189 83 71 54 81 67 73 8 76 75 64 87 75 51 75 74 56 345 305 53 224 249 206 243 283 287 7 23 325 23 168 111 86 89 62 94 95 137 238 200 164 205 231 230 220 264 276 260 270 274 266 274 273 270
124 85 64 59 85 55 58 339 74 13 94 120 85 85 39 25 267 350 29 224 255 245 249 247 265 251 225 310 11 20 60 106 94 136 162 169 203 226 183 185 181 188 264 262 186 273 270 300 296 283 282 292 314 303
21 58 67 70 68 106 33 48 56 79 80 53 79 88 15 225 314 53 245 262 252 305 337 295 28 13 360 20 18 293 275 114 107 24 203 137 168 274 205 223 200 213 230 267 277 293 296 287 315 322 324 315 297 283
100 20 76 64 19 92 88 89 72 79 100 70 98 59 253 43 71 51 236 271 294 279 263 340 56 82 146 275 296 286 253 146 153 195 260 177 144 357 319 240 233 231 163 140 322 337 301 307 323 321 308 292 292 300
85 6 85 160 138 110 169 119 155 150 128 97 107 257 39 90 80 243 232 225 231 214 208 181 173 110 307 200 179 279 255 192 111 86 282 187 181 157 185 264 331 303 186 149 140 282 291 288 293 311 302 296 280 282
122 142 333 263 100 111 85 62 77 106 122 155 173 123 92 115 242 249 273 222 196 226 196 165 147 158 195 227 257 263 265 191 167 195 215 208 215 195 161 179 225 242 163 173 193 212 260 288 291 287 287 290 258 258
83 134 130 213 81 21 117 97 137 171 171 200 108 159 166 185 212 231 199 222 165 121 101 136 193 165 165 211 211 165 322 324 314 303 295 287 254 242 242 262 267 273 231 214 233 236 233 249 264 274 277 279 288 278
57 326 83 58 77 56 63 123 162 193 154 135 123 186 229 234 219 163 261 171 91 91 76 29 307 15 19 354 8 266 151 111 77 44 33 304 341 322 339 284 277 280 271 280 281 265 251 243 247 256 266 272 279 283
30 355 90 62 74 80 305 330 200 260 232 174 137 55 9 328 258 190 90 70 97 184 202 183 193 122 185 131 312 317 247 188 172 149 170 225 232 261 299 296 295 293 303 289 291 302 301 320 310 305 293 288 281 286
277 56 79 53 83 280 264 316 315 31 28 42 355 107 197 275 315 283 164 177 139 108 96 60 325 212 141 171 162 81 329 291 223 235 230 239 259 268 274 268 264 275 283 283 292 284 285 293 288 297 297 302 304 305
28 45 103 92 51 307 21 56 15 65 348 43 345 7 3 35 325 291 232 113 72 69 241 162 155 264 219 217 228 240 218 252 241 224 229 233 254 259 264 271 282 273 278 282 284 277 284 288 295 299 302 304 308 314
61 56 57 90 47 359 301 78 24 25 24 31 346 251 227 162 224 254 302 154 161 187 207 218 225 226 216 204 211 238 237 239 261 271 263 249 238 250 254 244 254 263 276 287 287 287 294 300 301 305 308 312 317 324